Content
SEND FEEDBACK

Daily
Averages
Monthly
Summary
United States of America

EL PASO, TEXAS


Home > North America > United States > Texas
Elevation: 3918 feet     Latitude: 31 48N     Longitude: 106 24W

WEATHER
 
SELECT A DAY
Number of Records: 171,910;   Date Range: 1/1/95 - 7/26/14
 
SHARE

PRINT THIS DATA

[ ← Previous Day ]
WEATHER ALMANAC - APRIL 24, 2013
[ Next Day → ]
[ °C ]   °F
Weather ElementAverageHighLow
Temperature59 °F75 °F (6:51 pm)42.1 °F (6:51 am)
Dewpoint24.9 °F28 °F (9:51 pm)21 °F (5:51 pm)
Humidity29.8 %49 % (6:51 am)13 % (6:51 pm)
Barometer29.98 in30.09 in (9:51 am)29.89 in (4:51 pm)
Wind Speed7.1 mph12.7 mph (8:51 pm)
Wind Gust19.6 mph (11:51 am)
Weather ElementAverage
Visibility10 mi
Wind DirectionE (92.6 °)

Weather ElementTotal
Precipitation---
Heating Degree Days6.5 (Base 65)
Growing Degree Days8.6 (Base 50)
Averaged from 23 records on April 24, 2013
WEATHER CONDITIONS BREAKOUT
WIND DIRECTION BREAKOUT
WEATHER BY HOUR - APRIL 24, 2013
[ °C ]   °F
Local TimeTemperatureDewpointHumidityBarometerVisibilityWind DirectionWind SpeedGust SpeedPrecipitationEventsConditions
1:51 AM52.0 °F26.1 °F37 %29.94 in10.0 miESE (120°)4.6 mphClear
2:51 AM48.9 °F25.0 °F39 %29.94 in10.0 miENE (60°)11.5 mphClear
3:51 AM46.9 °F25.0 °F42 %29.96 in10.0 miENE (70°)5.8 mphClear
4:51 AM45.0 °F25.0 °F46 %29.98 in10.0 miENE (70°)4.6 mphClear
5:51 AM43.0 °F24.1 °F47 %30.00 in10.0 miVariable4.6 mphClear
6:51 AM42.1 °F24.1 °F49 %30.04 in10.0 miENE (70°)6.9 mphPartly Cloudy
7:51 AM43.0 °F24.1 °F47 %30.07 in10.0 miESE (110°)6.9 mphPartly Cloudy
8:51 AM46.0 °F25.0 °F44 %30.08 in10.0 miESE (110°)9.2 mphPartly Cloudy
9:51 AM51.1 °F25.0 °F36 %30.09 in10.0 miEast (90°)11.5 mphPartly Cloudy
10:51 AM55.0 °F26.1 °F33 %30.09 in10.0 miESE (110°)9.2 mphPartly Cloudy
11:51 AM57.9 °F26.1 °F30 %30.06 in10.0 miSE (140°)6.9 mph19.6 mphPartly Cloudy
12:51 PM62.1 °F26.1 °F25 %30.03 in10.0 miEast (100°)9.2 mph17.3 mphPartly Cloudy
1:51 PM66.0 °F26.1 °F22 %29.99 in10.0 miSE (130°)3.5 mphPartly Cloudy
2:51 PM69.1 °F25.0 °F19 %29.96 in10.0 miESE (110°)9.2 mphClear
3:51 PM71.1 °F24.1 °F17 %29.91 in10.0 miVariable4.6 mphPartly Cloudy
4:51 PM73.9 °F23.0 °F15 %29.89 in10.0 miSSE (150°)6.9 mphPartly Cloudy
5:51 PM73.9 °F21.0 °F14 %29.89 in10.0 miSSE (160°)5.8 mphPartly Cloudy
6:51 PM75.0 °F21.0 °F13 %29.89 in10.0 miSE (130°)6.9 mphPartly Cloudy
7:51 PM73.0 °F21.0 °F14 %29.91 in10.0 miESE (110°)5.8 mphScattered Clouds
8:51 PM69.1 °F27.0 °F21 %29.93 in10.0 miEast (100°)12.7 mphScattered Clouds
9:51 PM66.0 °F28.0 °F24 %29.94 in10.0 miEast (100°)9.2 mphMostly Cloudy
10:51 PM64.0 °F27.0 °F25 %29.95 in10.0 miEast (90°)8.1 mphOvercast
11:51 PM62.1 °F27.0 °F26 %29.97 in10.0 miCalmScattered Clouds
Hourly data recorded from KELP, located miles away from El Paso, Texas







STORIES FROM OUR PARTNERS